0607312011,2008,10,28,17,0.061
0607312011,2008,10,28,18,0.055
0607312011,2008,10,28,19,0.048
0607312011,2008,10,28,20,0.040
0607312011,2008,10,28,21,0.029
0607312011,2008,10,28,22,0.026
0607312011,2008,10,28,23,0.020
0607312011,2008,10,29,00,0.016
0607312011,2008,10,29,01,0.015
0607312011,2008,10,29,02,0.016
0607312011,2008,10,29,03,0.014
0607312011,2008,10,29,04,0.015
0607312011,2008,10,29,05,0.017
0607312011,2008,10,29,06,0.017
0607312011,2008,10,29,07,0.014
0607312011,2008,10,29,08,0.010
0607312011,2008,10,29,09,0.011
0607312011,2008,10,29,10,0.023
0607312011,2008,10,29,11,0.037
0607312011,2008,10,29,12,0.054
0607312011,2008,10,29,13,0.060
0607312011,2008,10,29,14,0.067
0607312011,2008,10,29,15,0.072
0607312011,2008,10,29,16,0.073
0607312011,2008,10,29,17,0.063
0607312011,2008,10,29,18,0.058
0607312011,2008,10,29,19,0.054
0607312011,2008,10,29,20,0.042
0607312011,2008,10,29,21,0.035
0607312011,2008,10,29,22,0.027
0607312011,2008,10,29,23,0.022
0607312011,2008,10,30,00,0.02
0607312011,2008,10,30,01,0.018
0607312011,2008,10,30,02,0.017
0607312011,2008,10,30,03,0.015
0607312011,2008,10,30,04,0.016
0607312011,2008,10,30,05,0.015
0607312011,2008,10,30,06,0.015
0607312011,2008,10,30,07,0.014
0607312011,2008,10,30,08,0.011
0607312011,2008,10,30,09,0.009
0607312011,2008,10,30,10,0.027
0607312011,2008,10,30,11,0.035
0607312011,2008,10,30,12,0.043
0607312011,2008,10,30,13,0.046
0607312011,2008,10,30,14,0.053
0607312011,2008,10,30,15,0.055
0607312011,2008,10,30,16,0.051
0607312011,2008,10,30,17,0.047
0607312011,2008,10,30,18,0.043
0607312011,2008,10,30,19,0.037
0607312011,2008,10,30,20,0.027
0607312011,2008,10,30,21,0.024
0607312011,2008,10,30,22,0.018
0607312011,2008,10,30,23,0.015
0607312011,2008,10,31,00,0.013
0607312011,2008,10,31,01,0.010
0607312011,2008,10,31,02,0.008
0607312011,2008,10,31,03,0.008
0607312011,2008,10,31,04,0.009
0607312011,2008,10,31,05,0.008
0607312011,2008,10,31,06,0.007
0607312011,2008,10,31,07,0.005
0607312011,2008,10,31,08,0.004
0607312011,2008,10,31,09,0.004
0607312011,2008,10,31,10,0.011
0607312011,2008,10,31,11,0.029
0607312011,2008,10,31,12,0.036
0607312011,2008,10,31,13,0.041
0607312011,2008,10,31,14,0.048
0607312011,2008,10,31,15,0.049
0607312011,2008,10,31,16,0.042
0607312011,2008,10,31,17,0.042
0607312011,2008,10,31,18,0.043
0607312011,2008,10,31,19,0.038
0607312011,2008,10,31,20,0.029
0607312011,2008,10,31,21,0.020
0607312011,2008,10,31,22,0.015
0607312011,2008,10,31,23,0.013
0607312011,2008,11,01,00,0.012
0607312011,2008,11,01,01,0.006
0607312011,2008,11,01,02,0.012
0607312011,2008,11,01,03,0.012
0607312011,2008,11,01,04,0.009
0607312011,2008,11,01,05,0.008
0607312011,2008,11,01,06,0.008
0607312011,2008,11,01,07,0.006
0607312011,2008,11,01,08,0.006
0607312011,2008,11,01,09,0.008
0607312011,2008,11,01,10,0.015
0607312011,2008,11,01,11,0.024
0607312011,2008,11,01,12,0.033
0607312011,2008,11,01,13,0.042
0607312011,2008,11,01,14,0.043
0607312011,2008,11,01,15,0.044
0607312011,2008,11,01,16,0.043
0607312011,2008,11,01,17,0.036
0607312011,2008,11,01,18,0.035
0607312011,2008,11,01,19,0.030
0607312011,2008,11,01,20,0.028
0607312011,2008,11,01,21,0.020
0607312011,2008,11,01,22,0.016
0607312011,2008,11,01,23,0.015
0607312011,2008,11,02,00,0.023
0607312011,2008,11,02,01,0.021
0607312011,2008,11,02,02,0.018
0607312011,2008,11,02,03,0.021
0607312011,2008,11,02,04,0.023
0607312011,2008,11,02,05,0.016
0607312011,2008,11,02,06,0.015
0607312011,2008,11,02,07,0.010
0607312011,2008,11,02,08,0.008
0607312011,2008,11,02,09,0.012
0607312011,2008,11,02,10,0.022
0607312011,2008,11,02,11,0.027
0607312011,2008,11,02,12,0.030
0607312011,2008,11,02,13,0.028
0607312011,2008,11,02,14,0.025
0607312011,2008,11,02,15,0.025
0607312011,2008,11,02,16,0.028
0607312011,2008,11,02,17,0.034
0607312011,2008,11,02,18,0.035
0607312011,2008,11,02,19,0.034
0607312011,2008,11,02,20,0.031
0607312011,2008,11,02,21,0.028
0607312011,2008,11,02,22,0.021
0607312011,2008,11,02,23,0.014
0607312011,2008,11,03,00,0.008
0607312011,2008,11,03,01,0.004
0607312011,2008,11,03,02,0.003
0607312011,2008,11,03,03,0.002
0607312011,2008,11,03,04,0.000
0607312011,2008,11,03,05,0.000
0607312011,2008,11,03,06,0.000
0607312011,2008,11,03,07,-0.00
0607312011,2008,11,03,08,0
0607312011,2008,11,03,09,0.001
0607312011,2008,11,03,10,0.010
0607312011,2008,11,03,11,0.023
0607312011,2008,11,03,12,0.031
0607312011,2008,11,03,13,0.034
0607312011,2008,11,03,14,0.036
0607312011,2008,11,03,15,0.039
0607312011,2008,11,03,16,0.038
